TimePDT,TemperatureF,Dew PointF,Humidity,Sea Level PressureIn,VisibilityMPH,Wind Direction,Wind SpeedMPH,Gust SpeedMPH,PrecipitationIn,Events,Conditions,WindDirDegrees,DateUTC
12:15 AM,55.4,51.8,88,29.94,10.0,South,5.8,-,N/A,,Clear,170,2013-08-03 07:15:00
12:35 AM,55.4,51.8,88,29.94,10.0,South,3.5,-,N/A,,Clear,170,2013-08-03 07:35:00
12:55 AM,55.4,53.6,94,29.93,10.0,Calm,Calm,-,N/A,,Clear,0,2013-08-03 07:55:00
1:15 AM,55.4,53.6,94,29.94,10.0,Calm,Calm,-,N/A,,Clear,0,2013-08-03 08:15:00
1:35 AM,53.6,53.6,100,29.94,10.0,Calm,Calm,-,N/A,,Clear,0,2013-08-03 08:35:00
1:55 AM,53.6,50.0,88,29.93,10.0,Calm,Calm,-,N/A,,Clear,0,2013-08-03 08:55:00
2:15 AM,51.8,51.8,100,29.93,10.0,SSW,3.5,-,N/A,,Clear,210,2013-08-03 09:15:00
2:35 AM,50.0,50.0,100,29.93,10.0,Calm,Calm,-,N/A,,Clear,0,2013-08-03 09:35:00
2:55 AM,48.2,48.2,100,29.94,10.0,Calm,Calm,-,N/A,,Clear,0,2013-08-03 09:55:00
3:15 AM,50.0,50.0,100,29.93,10.0,Calm,Calm,-,N/A,,Clear,0,2013-08-03 10:15:00
3:35 AM,48.2,48.2,100,29.94,10.0,Calm,Calm,-,N/A,,Clear,0,2013-08-03 10:35:00
3:55 AM,50.0,50.0,100,29.94,10.0,Calm,Calm,-,N/A,,Clear,0,2013-08-03 10:55:00
4:15 AM,50.0,50.0,100,29.94,10.0,Calm,Calm,-,N/A,,Partly Cloudy,0,2013-08-03 11:15:00
4:35 AM,50.0,50.0,100,29.94,10.0,Calm,Calm,-,N/A,,Mostly Cloudy,0,2013-08-03 11:35:00
4:55 AM,51.8,51.8,100,29.94,10.0,Calm,Calm,-,N/A,,Overcast,0,2013-08-03 11:55:00
5:15 AM,51.8,51.8,100,29.94,10.0,South,4.6,-,N/A,,Overcast,180,2013-08-03 12:15:00
5:35 AM,53.6,53.6,100,29.94,10.0,South,3.5,-,N/A,,Overcast,180,2013-08-03 12:35:00
5:55 AM,53.6,53.6,100,29.95,10.0,South,3.5,-,N/A,,Overcast,180,2013-08-03 12:55:00
6:15 AM,53.6,53.6,100,29.96,10.0,South,4.6,-,N/A,,Overcast,180,2013-08-03 13:15:00
6:35 AM,53.6,53.6,100,29.96,10.0,SSW,4.6,-,N/A,,Overcast,210,2013-08-03 13:35:00
6:55 AM,53.6,53.6,100,29.96,10.0,SSW,3.5,-,N/A,,Overcast,200,2013-08-03 13:55:00
7:15 AM,53.6,53.6,100,29.97,8.0,SSW,4.6,-,N/A,,Overcast,210,2013-08-03 14:15:00
7:35 AM,53.6,53.6,100,29.97,8.0,Calm,Calm,-,N/A,,Unknown,0,2013-08-03 14:35:00
7:55 AM,53.6,53.6,100,29.98,9.0,Calm,Calm,-,N/A,,Unknown,0,2013-08-03 14:55:00
8:15 AM,53.6,53.6,100,29.98,10.0,Calm,Calm,-,N/A,,Unknown,0,2013-08-03 15:15:00
8:35 AM,53.6,53.6,100,29.98,10.0,WSW,3.5,-,N/A,,Unknown,240,2013-08-03 15:35:00
8:55 AM,55.4,53.6,94,29.99,10.0,South,3.5,-,N/A,,Unknown,180,2013-08-03 15:55:00
9:15 AM,55.4,53.6,94,29.99,10.0,Calm,Calm,-,N/A,,Unknown,0,2013-08-03 16:15:00
9:35 AM,55.4,53.6,94,29.99,10.0,Calm,Calm,-,N/A,,Unknown,0,2013-08-03 16:35:00
9:55 AM,57.2,53.6,88,29.99,10.0,Calm,Calm,-,N/A,,Unknown,0,2013-08-03 16:55:00
10:15 AM,57.2,53.6,88,29.99,10.0,NNE,4.6,-,N/A,,Unknown,30,2013-08-03 17:15:00
10:35 AM,59.0,53.6,82,29.99,10.0,North,4.6,-,N/A,,Unknown,350,2013-08-03 17:35:00
10:55 AM,62.6,53.6,72,29.98,10.0,Calm,Calm,-,N/A,,Unknown,0,2013-08-03 17:55:00
11:15 AM,64.4,53.6,68,29.98,10.0,ENE,4.6,-,N/A,,Unknown,60,2013-08-03 18:15:00
11:35 AM,66.2,53.6,64,29.97,9.0,East,3.5,-,N/A,,Unknown,100,2013-08-03 18:35:00
11:55 AM,66.2,55.4,68,29.97,10.0,SE,6.9,-,N/A,,Unknown,130,2013-08-03 18:55:00
12:15 PM,68.0,55.4,64,29.97,10.0,ESE,8.1,-,N/A,,Unknown,120,2013-08-03 19:15:00
12:35 PM,68.0,55.4,64,29.96,10.0,SE,6.9,-,N/A,,Unknown,130,2013-08-03 19:35:00
12:55 PM,69.8,55.4,60,29.96,10.0,SE,6.9,-,N/A,,Unknown,130,2013-08-03 19:55:00
1:15 PM,71.6,55.4,57,29.96,-9999.0,SE,6.9,-,N/A,,Unknown,130,2013-08-03 20:15:00
1:35 PM,71.6,55.4,57,29.96,-9999.0,ESE,9.2,-,N/A,,Unknown,120,2013-08-03 20:35:00
1:55 PM,71.6,55.4,57,29.95,-9999.0,ESE,8.1,-,N/A,,Unknown,120,2013-08-03 20:55:00
2:15 PM,73.4,55.4,53,29.94,-9999.0,SE,5.8,-,N/A,,Unknown,140,2013-08-03 21:15:00
2:35 PM,75.2,55.4,50,29.94,-9999.0,SE,4.6,-,N/A,,Unknown,140,2013-08-03 21:35:00
2:55 PM,77.0,55.4,47,29.94,-9999.0,SE,4.6,-,N/A,,Unknown,140,2013-08-03 21:55:00
3:15 PM,77.0,55.4,47,29.93,-9999.0,NNE,4.6,-,N/A,,Unknown,30,2013-08-03 22:15:00
3:35 PM,78.8,55.4,44,29.92,-9999.0,NNW,11.5,20.7,N/A,,Unknown,330,2013-08-03 22:35:00
3:55 PM,78.8,53.6,42,29.92,-9999.0,North,16.1,-,N/A,,Unknown,350,2013-08-03 22:55:00
4:15 PM,78.8,53.6,42,29.92,-9999.0,North,12.7,-,N/A,,Unknown,350,2013-08-03 23:15:00
4:35 PM,78.8,53.6,42,29.92,-9999.0,NNW,13.8,-,N/A,,Unknown,340,2013-08-03 23:35:00
4:55 PM,78.8,53.6,42,29.91,-9999.0,NNW,16.1,19.6,N/A,,Unknown,340,2013-08-03 23:55:00
5:15 PM,77.0,53.6,44,29.91,-9999.0,NNW,13.8,-,N/A,,Unknown,340,2013-08-04 00:15:00
5:35 PM,77.0,53.6,44,29.91,-9999.0,North,15.0,-,N/A,,Unknown,350,2013-08-04 00:35:00
5:55 PM,77.0,53.6,44,29.91,-9999.0,North,12.7,-,N/A,,Unknown,350,2013-08-04 00:55:00
6:15 PM,75.2,53.6,47,29.91,-9999.0,North,13.8,-,N/A,,Unknown,10,2013-08-04 01:15:00
6:35 PM,73.4,53.6,50,29.91,-9999.0,North,13.8,-,N/A,,Unknown,360,2013-08-04 01:35:00
6:55 PM,71.6,53.6,53,29.90,-9999.0,North,12.7,-,N/A,,Clear,10,2013-08-04 01:55:00
7:15 PM,68.0,53.6,60,29.91,10.0,North,12.7,-,N/A,,Clear,360,2013-08-04 02:15:00
7:35 PM,68.0,53.6,60,29.91,10.0,North,13.8,-,N/A,,Clear,350,2013-08-04 02:35:00
7:55 PM,62.6,53.6,72,29.91,10.0,North,13.8,-,N/A,,Clear,360,2013-08-04 02:55:00
8:15 PM,57.2,53.6,88,29.92,10.0,North,12.7,17.3,N/A,,Clear,360,2013-08-04 03:15:00
8:35 PM,55.4,51.8,88,29.93,10.0,North,12.7,-,N/A,,Clear,10,2013-08-04 03:35:00
8:55 PM,53.6,51.8,94,29.94,10.0,North,11.5,-,N/A,,Clear,10,2013-08-04 03:55:00
9:15 PM,53.6,51.8,94,29.94,10.0,North,9.2,-,N/A,,Clear,360,2013-08-04 04:15:00
9:35 PM,53.6,53.6,100,29.96,10.0,North,10.4,-,N/A,,Clear,360,2013-08-04 04:35:00
9:55 PM,53.6,53.6,100,29.96,10.0,North,10.4,-,N/A,,Clear,360,2013-08-04 04:55:00
10:15 PM,53.6,53.6,100,29.97,10.0,North,8.1,-,N/A,,Clear,10,2013-08-04 05:15:00
10:35 PM,51.8,51.8,100,29.97,10.0,NNW,5.8,-,N/A,,Clear,340,2013-08-04 05:35:00
10:55 PM,50.0,50.0,100,29.97,10.0,NNW,3.5,-,N/A,,Clear,340,2013-08-04 05:55:00
11:15 PM,51.8,51.8,100,29.97,10.0,Calm,Calm,-,N/A,,Clear,0,2013-08-04 06:15:00
11:35 PM,51.8,51.8,100,29.97,10.0,Calm,Calm,-,N/A,,Clear,0,2013-08-04 06:35:00
11:55 PM,51.8,51.8,100,29.98,10.0,Calm,Calm,-,N/A,,Clear,0,2013-08-04 06:55:00